Location: Star Camp Observatory
(34.2910°N, 116.3827°W)
Time: 20:16:15
(UTC-08:00)

Envisat - Visible Passes

Search period start: 16 November 2019 00:00
Search period end: 26 November 2019 00:00
Orbit: 764 x 766 km, 98.1° (Epoch: 16 November)

Date Brightness Start Highest point End Pass type
(mag) Time Alt. Az. Time Alt. Az. Time Alt. Az.
16 Nov 2.9 17:46:47 10° SSE 17:51:51 80° ENE 17:56:56 10° N visible
17 Nov 3.6 17:10:44 10° SE 17:15:15 33° ENE 17:19:47 10° N visible
17 Nov 5.3 18:50:18 10° SSW 18:54:16 23° W 18:58:15 10° NW visible
18 Nov 6.1 05:24:27 10° ENE 05:27:24 15° E 05:30:19 10° SE visible
18 Nov 3.7 18:12:23 10° S 18:17:21 55° W 18:22:19 10° NNW visible
19 Nov 3.0 17:35:38 10° SSE 17:40:37 62° ENE 17:45:37 10° N visible
19 Nov 6.1 19:18:03 10° WSW 19:19:58 12° W 19:21:54 10° WNW visible
20 Nov 5.4 05:48:43 10° NE 05:53:04 28° E 05:57:24 10° SSE visible
20 Nov 3.9 16:59:54 10° SE 17:04:04 26° ENE 17:08:14 10° NNE visible
20 Nov 4.9 18:38:32 10° SSW 18:42:56 29° W 18:47:21 10° NW visible
21 Nov 6.4 05:14:21 10° ENE 05:16:01 11° E 05:17:41 10° ESE visible
21 Nov 3.2 18:01:01 10° S 18:06:04 72° WSW 18:11:09 10° NNW visible
22 Nov 3.2 17:24:32 10° SE 17:29:23 47° ENE 17:34:15 10° N visible
22 Nov 5.8 19:05:33 10° SW 19:08:36 16° W 19:11:40 10° NW visible
23 Nov 5.8 05:37:50 10° NE 05:41:43 22° E 05:45:37 10° SE visible
23 Nov 4.4 18:26:55 10° SSW 18:31:37 38° W 18:36:19 10° NNW visible
24 Nov 2.9 17:49:43 10° SSE 17:54:47 88° E 17:59:53 10° NNW visible
25 Nov 3.5 17:13:33 10° SE 17:18:10 37° ENE 17:22:48 10° N visible
25 Nov 5.5 18:53:29 10° SW 18:57:14 21° W 19:01:01 10° NW visible
